Погода в Саньяни

Гана     7°20′41″N   2°19′13″W
темп.,
°C
ветер,
м/с
пор.,
м/с
влажн.,
%
обл.,
%
осадки,
мм/ч
давл.,
гПа
погр.,
м
4 декабря, сб
сб400:00+23ю116499 0.0 101111
03:00+21ююз1482100 0.0 1010105
06:00+21ю1195100 0.0 101122
09:00+28ю126499 0.0 1013596
12:00+35ссв253095 0.0 10102398
15:00+35всв242599 0.0 10072629
18:00+28св124242 0.0 100824
21:00+26в11464 0.0 101111
5 декабря, вс
вс500:00+23ююз166915 0.0 1011129
03:00+22ю269312 0.0 1010162
06:00+21зюз119941 0.0 101120
09:00+28зюз116578 0.0 1013641
12:00+35ссв24282 0.0 10102223
15:00+36с23211 0.0 10072950
18:00+28ссв11343 0.0 100911
21:00+25юв00365 0.0 101111
6 декабря, пн
пн600:00+22ююз1263100 0.0 101144
03:00+21ююз1697100 0.0 1010150
06:00+21юз1510058 0.0 1011174
09:00+28юз226951 0.0 1013749
12:00+35зсз123215 0.0 10102083
15:00+36с22248 0.0 10072952
18:00+28ссв11395 0.0 100913
21:00+25ююв11487 0.0 101122
7 декабря, вт
вт700:00+23юз277013 0.0 1012152
03:00+22ююз26931 0.0 1010186
06:00+21ю159935 0.0 1011130
09:00+28юз23655 0.0 1013719
12:00+35зюз12353 0.0 10102192
15:00+36ссв23261 0.0 10073094
18:00+29ссв114125 0.0 100811
21:00+26вюв115274 0.0 101113
8 декабря, ср
ср800:00+23ююз27682 0.0 1011178
03:00+22ююз26935 0.0 1010194
06:00+21ююз149939 0.0 1011145
09:00+28ююз11645 0.0 1013666
12:00+36ссз13345 0.0 10112369
15:00+33св233588 0.0 1008625
18:00+29ююв1144100 0.0 100819
21:00+26ююв25610 0.0 1011159